Regional Weather Roundup
Issued by NWS

Home | Current Version | Previous Version | Text Only | Print | Product List | Glossary Off
Versions: 1 2 3 4 5 6 7 8 9 10 11 12 13 14 15 16 17 18 19 20 21 22 23 24 25 26 27 28 29 30 31 32 33 34 35 36 37 38 39 40 41 42 43 44 45 46 47 48 49 50

000
ASUS45 KSLC 021010
RWRUT

UTAH REGIONAL WEATHER ROUNDUP
NATIONAL WEATHER SERVICE SALT LAKE CITY UT
400 AM MDT THU OCT 02 2014

UTZ001>011-023>025-021100-

NORTHERN UTAH

CITY           SKY/WX    TMP DP  RH WIND       PRES   REMARKS
HILL AFB       CLEAR     41  33  72 E14       30.24R
LOGAN          NOT AVBL
OGDEN          CLEAR     41  35  79 S8        30.23R
PROVO AIRPORT  CLEAR     37  32  81 SE3       30.26R
SALT LAKE CITY CLEAR     42  37  82 SE8       30.23R
VERNAL         CLEAR     37  30  75 NW6       30.22S WCI  32
WENDOVER       PTCLDY    43  34  70 CALM      30.24R
HEBER CITY     CLEAR     32  30  93 CALM      30.28R
WEST JORDAN    CLEAR     41  34  75 S6        30.25R

$$

UTZ012>022-026-027-021100-

SOUTHERN UTAH

CITY           SKY/WX    TMP DP  RH WIND       PRES   REMARKS
BRYCE CANYON   MOCLDY    26  23  88 W8        30.30S WCI  18
CEDAR CITY     PTCLDY    34  29  82 NE8       30.24F WCI  27
MILFORD        CLEAR     38  31  76 E3        30.25S
MOAB/CYNLANDS  CLEAR     39  37  92 W5        30.20R
PRICE          CLEAR     38  27  64 NW5       30.24R WCI  34
ST GEORGE      SUNNY     55  27  33 N5        30.16F
KANAB            N/A     39  28  65 NE5       30.26S

$$

REGIONAL REPORTS     COLORADO/ARIZONA

CITY           SKY/WX    TMP DP  RH WIND       PRES   REMARKS
CRAIG, CO      PTCLDY    35  32  88 CALM      30.24R
GRAND JUNCTION CLEAR     39  36  89 NW3       30.22R
RIFLE          PTCLDY    39  37  92 SE3       30.23S
MONTROSE       MOCLDY    39  37  92 S6        30.25R WCI  35
CORTEZ         CLEAR     41  32  70 N8        30.18S
PAGE, AZ       CLEAR     54  22  28 NW8       30.19R
GRAND CANYON   CLEAR     37  25  61 NE5       30.23R WCI  33
KINGMAN        CLEAR     48  36  63 E6        30.11S
FLAGSTAFF      PTCLDY    41  23  48 E12       30.23S

$$

REGIONAL REPORTS    NEVADA/IDAHO/WYOMING

CITY           SKY/WX    TMP DP  RH WIND       PRES   REMARKS
LAS VEGAS, NV  CLEAR     66  28  24 E12       30.08S
ELY            MOCLDY    27  22  81 S10       30.28F WCI  17
ELKO           PTCLDY    29  23  78 CALM      30.27R
POCATELLO, ID  CLEAR     45  30  55 S13       30.20S
BURLEY         CLEAR     41  32  70 SW12      30.20R
EVANSTON, WY   PTCLDY    31  28  89 SW12      30.26R WCI  22
ROCK SPRINGS   CLEAR     34  29  82 W18       30.21R WCI  23

$$



USA.gov is the U.S. government's official web portal to all federal, state and local government web resources and services.